Vorticity
13 12 9 7 8 7 5 5 4 3 2 2 5 5 5 5 4 10 11 9 10 9 10 9 6 5 3 8 9 7 5 4 4 3 4 6 5 5 7 8 7 5 5
10 11 11 13 12 13 10 6 6 6 3 3 2 2 1 1 1 5 3 5 9 4 6 5 8 7 7 6 9 9 6 6 4 5 5 4 5 4 5 7 7 6 6
12 9 9 10 12 11 11 14 16 16 16 17 16 14 10 4 7 8 4 3 6 10 8 3 2 8 9 9 4 7 7 8 4 5 7 5 5 10 4 5 2 1 5
17 15 15 13 14 17 21 26 20 11 8 8 13 16 16 14 12 13 10 7 4 4 2 11 3 8 6 4 11 7 8 7 0 3 4 8 7 8 6 -7 14 4 1
8 10 11 12 12 12 12 14 16 20 20 17 13 7 2 4 12 15 14 16 18 15 7 8 2 4 3 7 7 5 5 7 5 5 2 6 5 10 -6 16 17 27 11
10 7 6 6 7 6 6 5 5 7 8 9 12 16 19 19 10 3 1 2 7 13 21 21 5 3 2 6 3 7 8 7 9 8 7 3 4 6 12 10 2 -1 2
7 6 6 6 6 5 5 5 5 6 7 8 9 9 12 15 18 18 11 6 4 5 9 21 18 9 10 11 10 1 2 11 11 8 6 9 6 -6 17 4 6 3 -1
3 5 6 7 7 6 5 7 9 8 5 4 4 4 5 8 16 18 23 23 22 18 14 3 -2 5 20 16 11 15 13 6 11 9 -3 5 9 4 4 12 5 -2 2
3 5 8 8 10 15 15 16 14 10 6 5 6 5 5 6 7 5 5 4 9 10 9 16 22 19 13 -2 15 14 16 8 0 4 12 9 11 7 2 1 -2 7 2
8 9 9 13 6 15 18 18 19 22 25 25 24 11 6 6 7 8 7 7 4 2 8 9 9 7 21 15 4 2 7 18 13 11 5 8 24 3 9 7 5 11 -4
10 13 13 12 8 12 13 17 16 17 18 18 19 20 24 18 8 8 8 10 10 12 12 7 7 10 9 14 13 10 6 8 8 8 14 16 5 20 19 3 3 -0 12
9 13 19 15 15 13 13 11 13 10 8 10 12 16 24 22 21 19 13 9 11 9 3 4 11 12 8 11 11 11 10 6 3 5 9 9 4 17 -35 41 -3 18 -3
7 13 16 16 13 14 10 10 7 10 12 15 12 12 13 16 16 20 26 14 18 21 4 -5 21 16 19 20 11 9 13 13 12 9 9 9 1 8 1 -3 9 12 6
9 12 11 16 13 10 9 7 12 8 8 7 7 7 10 17 20 14 10 21 20 39 26 33 25 11 17 20 21 11 13 13 13 14 13 16 -21 0 -1 8 11 6 24
6 14 10 13 13 11 9 9 8 7 8 9 10 10 18 12 20 23 22 19 11 7 12 12 11 11 14 8 15 17 19 24 12 5 22 7 5 11 5 12 15 21 13
14 26 19 14 13 10 8 9 6 9 19 25 18 24 22 14 11 12 13 10 12 13 15 17 26 33 36 31 23 25 18 23 25 -14 5 27 12 20 13 18 17 12 4
10 17 13 13 14 9 8 8 13 12 17 7 8 3 1 -0 16 24 13 10 9 16 21 13 20 16 15 14 8 10 6 22 23 36 14 11 18 16 14 5 3 12 9
9 13 18 11 11 9 9 13 11 9 15 16 6 1 27 37 15 4 28 30 23 13 12 13 6 -0 14 34 -6 14 18 36 44 29 17 13 5 4 5 7 7 6 7
8 9 24 23 11 7 10 19 2 12 14 12 21 14 8 6 13 12 13 32 21 18 32 22 23 20 29 20 23 14 19 8 6 4 4 5 7 7 6 5 5 5 6
7 9 12 28 5 16 10 10 22 23 10 11 7 2 4 9 12 19 21 21 28 29 25 26 20 16 13 7 4 4 5 6 7 6 6 5 4 5 6 7 7 9 10
7 11 16 23 19 10 18 20 28 33 22 25 31 21 28 24 16 13 9 7 6 6 5 6 6 6 7 7 8 7 5 4 4 4 4 5 5 5 7 12 17 25 28
7 8 10 17 16 11 8 9 11 10 8 9 8 7 6 4 5 7 8 8 7 6 6 7 7 7 6 5 5 4 4 4 4 4 6 9 12 18 24 25 23 23 24
13 6 10 10 10 8 8 7 5 7 7 7 6 7 7 8 9 7 6 6 7 7 7 6 5 5 6 5 5 5 5 7 10 14 17 21 23 22 21 22 20 15 13
4 19 5 13 9 10 7 8 10 8 9 8 7 9 9 6 7 7 7 7 7 7 5 5 5 5 5 5 5 6 9 12 16 18 19 20 21 19 16 12 11 10 11
19 3 10 11 16 11 10 8 7 8 7 9 9 7 6 6 6 7 7 7 6 5 5 4 5 5 5 6 8 10 14 17 19 19 18 19 17 13 9 9 10 9 6
18 4 6 5 20 13 9 10 7 7 9 10 8 7 6 7 7 7 7 6 5 5 5 5 5 6 7 8 10 13 16 20 17 17 19 15 11 10 10 9 7 7 8
Height
3112 3113 3114 3114 3116 3118 3120 3123 3124 3126 3128 3128 3131 3132 3134 3138 3137 3139 3140 3139 3140 3140 3141 3141 3141 3141 3141 3142 3142 3142 3143 3143 3143 3143 3143 3143 3142 3142 3141 3141 3140 3140 3140
3105 3106 3107 3108 3109 3111 3112 3114 3115 3117 3119 3120 3120 3122 3124 3126 3128 3129 3130 3132 3132 3132 3132 3133 3134 3134 3135 3134 3135 3135 3136 3135 3136 3137 3137 3136 3137 3136 3136 3136 3135 3135 3135
3099 3100 3100 3101 3103 3104 3104 3106 3107 3109 3110 3111 3111 3111 3112 3112 3115 3118 3121 3124 3125 3125 3125 3126 3126 3126 3126 3126 3127 3127 3129 3128 3129 3129 3130 3128 3129 3131 3130 3129 3129 3129 3129
3093 3094 3095 3095 3096 3097 3098 3098 3098 3099 3101 3102 3101 3101 3101 3102 3105 3108 3110 3112 3112 3114 3115 3117 3116 3116 3117 3118 3119 3120 3121 3119 3121 3120 3122 3121 3121 3122 3123 3123 3121 3122 3121
3089 3091 3091 3091 3091 3091 3091 3091 3091 3092 3092 3093 3092 3092 3092 3093 3095 3096 3097 3098 3099 3101 3104 3105 3107 3105 3107 3109 3109 3111 3112 3112 3112 3114 3113 3113 3113 3114 3115 3114 3114 3113 3114
3086 3087 3088 3088 3087 3087 3086 3086 3086 3086 3085 3085 3084 3084 3084 3084 3084 3086 3086 3087 3088 3089 3090 3093 3095 3096 3097 3099 3100 3101 3102 3103 3103 3103 3103 3104 3105 3105 3105 3105 3104 3105 3105
3084 3084 3084 3083 3082 3081 3081 3080 3080 3079 3079 3078 3077 3076 3076 3075 3075 3075 3075 3076 3076 3077 3080 3081 3083 3084 3086 3087 3089 3090 3092 3093 3094 3094 3094 3095 3095 3096 3095 3095 3094 3095 3095
3080 3080 3079 3078 3076 3075 3073 3072 3072 3072 3070 3070 3069 3069 3068 3068 3068 3067 3066 3066 3066 3067 3069 3069 3071 3073 3074 3074 3076 3077 3080 3082 3083 3082 3082 3083 3084 3084 3085 3086 3085 3084 3084
3074 3073 3072 3070 3068 3066 3065 3064 3063 3063 3061 3061 3061 3061 3060 3060 3060 3060 3059 3059 3059 3059 3059 3058 3059 3061 3063 3064 3065 3066 3068 3070 3073 3073 3073 3073 3073 3075 3074 3076 3076 3076 3073
3068 3066 3064 3062 3060 3058 3056 3055 3054 3053 3052 3051 3051 3051 3051 3051 3051 3050 3050 3049 3050 3050 3050 3051 3051 3051 3052 3053 3054 3055 3057 3059 3061 3062 3062 3057 3056 3060 3062 3065 3067 3066 3063
3063 3060 3057 3056 3053 3051 3050 3048 3046 3045 3044 3043 3042 3041 3040 3040 3039 3040 3040 3040 3040 3040 3040 3041 3042 3042 3042 3043 3044 3045 3047 3048 3050 3051 3052 3053 3051 3053 3053 3055 3055 3056 3054
3057 3053 3050 3049 3047 3045 3044 3042 3040 3039 3037 3036 3034 3034 3032 3031 3029 3029 3029 3029 3030 3030 3030 3031 3031 3031 3031 3032 3033 3035 3037 3039 3041 3042 3044 3044 3043 3042 3042 3043 3044 3043 3042
3052 3048 3045 3043 3041 3039 3038 3037 3034 3033 3031 3030 3029 3027 3025 3023 3022 3020 3019 3018 3018 3019 3018 3018 3019 3019 3020 3021 3023 3025 3027 3030 3032 3034 3035 3035 3035 3034 3034 3034 3033 3032 3030
3048 3043 3040 3038 3036 3035 3033 3031 3032 3028 3027 3026 3024 3021 3018 3015 3013 3012 3012 3010 3009 3008 3007 3008 3009 3010 3011 3012 3014 3016 3018 3021 3023 3025 3026 3026 3023 3025 3025 3023 3022 3021 3019
3043 3039 3036 3034 3031 3030 3030 3029 3027 3023 3021 3019 3017 3014 3011 3009 3006 3004 3004 3003 3002 3002 3002 3001 3002 3003 3002 3003 3006 3008 3010 3013 3016 3017 3016 3017 3014 3014 3014 3015 3013 3012 3010
3038 3033 3029 3027 3027 3027 3026 3024 3021 3019 3017 3014 3012 3009 3006 3004 3002 3000 2999 2998 2997 2997 2996 2995 2995 2994 2994 2996 2998 3001 3004 3006 3007 3007 3009 3009 3008 3009 3006 3007 3005 3004 3002
3035 3030 3027 3026 3024 3022 3021 3020 3018 3016 3013 3009 3008 3006 3004 3001 2998 2997 2995 2994 2993 2992 2992 2992 2992 2992 2993 2994 2997 2999 3001 3002 3002 2999 3000 3002 3002 3002 3002 3001 2999 2996 2995
3032 3029 3025 3023 3021 3019 3018 3017 3015 3012 3009 3006 3005 3004 3001 2996 2996 2995 2993 2991 2989 2989 2990 2989 2986 2990 2991 2990 2992 2993 2995 2995 2996 2997 2996 2998 2998 2996 2994 2992 2991 2988 2984
3031 3027 3022 3019 3017 3016 3015 3014 3012 3010 3007 3004 3003 3002 3001 2998 2996 2994 2991 2989 2988 2988 2988 2987 2987 2988 2988 2988 2990 2992 2994 2994 2994 2994 2993 2992 2990 2989 2986 2983 2981 2977 2973
3030 3026 3021 3018 3016 3015 3014 3012 3009 3007 3006 3004 3003 3002 3000 2998 2996 2995 2993 2991 2989 2989 2989 2989 2989 2990 2990 2991 2991 2991 2990 2990 2990 2989 2988 2986 2983 2981 2977 2973 2971 2968 2964
3029 3025 3021 3017 3015 3015 3014 3012 3009 3005 3005 3004 3002 3002 3001 3000 2998 2997 2996 2995 2994 2994 2994 2993 2993 2993 2993 2992 2992 2990 2989 2988 2986 2985 2983 2980 2977 2973 2968 2964 2961 2957 2953
3027 3025 3022 3018 3016 3016 3015 3013 3012 3009 3008 3006 3005 3004 3003 3003 3002 3000 2999 2998 2998 2997 2997 2996 2995 2994 2993 2992 2991 2989 2987 2985 2982 2979 2976 2972 2967 2962 2958 2955 2951 2948 2945
3026 3024 3022 3020 3018 3017 3015 3014 3013 3012 3010 3009 3008 3007 3006 3005 3004 3003 3002 3001 3001 3000 2999 2998 2997 2995 2994 2992 2990 2987 2983 2980 2975 2970 2966 2961 2957 2953 2950 2948 2946 2943 2941
3025 3023 3021 3020 3019 3017 3016 3015 3014 3014 3012 3011 3010 3009 3008 3007 3006 3005 3004 3003 3002 3001 3000 2998 2996 2994 2991 2987 2984 2980 2975 2970 2965 2960 2956 2953 2951 2948 2946 2943 2942 2940 2938
3023 3022 3020 3019 3018 3016 3015 3014 3014 3013 3012 3011 3010 3009 3008 3007 3007 3006 3005 3004 3002 3001 2999 2996 2993 2991 2988 2984 2979 2974 2968 2963 2958 2954 2951 2948 2946 2944 2942 2940 2939 2937 2936
3020 3019 3018 3017 3016 3015 3014 3013 3013 3012 3011 3011 3010 3009 3008 3007 3007 3006 3004 3003 3001 2999 2997 2994 2991 2988 2984 2979 2973 2968 2962 2957 2953 2950 2947 2945 2943 2942 2940 2938 2936 2935 2933